• Join FlightAware (Why Join?)
  • Login
  • US Flag 
05:24AM EST


 

Airport Tracker/Info


-or-


 

Live Flight TrackerFlight Track Log ✈ DAL6225 ✈ 21-Apr-2013 ✈ KMSN - KLGA

Flight Track Log - Related Links

Times and Time Zones

All times are in EDT time to prevent confusion due to time zone crossing. See the DAL6225 flight status page for this flight to view local times or setup timezone preferences in your user account.

Time Position Orientation Groundspeed Altitude Reporting Facility
EDT Latitude Longitude Course Direction KTS MPH feet Rate Location/Type
09:50AM 43.1044 -89.3236 90° East 141 162 2,900  Level Chicago Center
09:51AM 43.1039 -89.2492 91° East 194 223 4,900 1,980 Climbing Chicago Center
09:52AM 43.1061 -89.1536 88° East 226 260 7,000 2,340 Climbing Chicago Center
09:53AM 43.1083 -89.0378 88° East 287 330 9,700 2,460 Climbing Chicago Center
09:54AM 43.1094 -88.8989 89° East 312 359 12,100 1,980 Climbing Chicago Center
09:55AM 43.1167 -88.4325 90° East  Level FlightAware Approximate
09:55AM 43.1111 -88.7633 89° East 351 404 13,800  Level Chicago Center
09:56AM 43.1122 -88.6172 89° East 380 437 15,700 1,860 Climbing Chicago Center
09:57AM 43.1139 -88.4672 89° East 395 455 17,700 1,620 Climbing Chicago Center
09:58AM 43.1161 -88.3144 89° East 403 464 19,000 1,380 Climbing Chicago Center
09:59AM 43.1222 -88.1594 87° East 411 473 20,600 1,680 Climbing Chicago Center
10:00AM 43.1322 -87.9700 86° East 427 491 22,500 1,680 Climbing Chicago Center
10:01AM 43.1389 -87.8064 87° East 432 497 24,100 1,260 Climbing Chicago Center
10:02AM 43.1467 -87.6386 86° East 440 506 25,200 1,020 Climbing Chicago Center
10:03AM 43.1539 -87.4653 87° East 456 525 26,200 960 Climbing Chicago Center
10:04AM 43.1614 -87.2892 87° East 467 537 27,200 960 Climbing Chicago Center
10:05AM 43.1697 -87.1075 86° East 473 544 28,200 960 Climbing Chicago Center
10:06AM 43.1758 -86.9275 87° East 475 547 29,200 960 Climbing Chicago Center
10:07AM 43.1833 -86.7444 87° East 481 554 30,200 960 Climbing Chicago Center
10:08AM 43.1900 -86.5619 87° East 480 552 31,200 1,020 Climbing Chicago Center
10:09AM 43.1969 -86.3419 87° East 481 554 32,400 1,080 Climbing Chicago Center
10:10AM 43.2028 -86.1586 87° East 479 551 33,500 960 Climbing Chicago Center
10:11AM 43.2083 -85.9733 88° East 478 550 34,500 720 Climbing Chicago Center
10:12AM 43.2139 -85.7903 88° East 475 547 35,000 240 Climbing Chicago Center
10:13AM 43.2183 -85.6061 88° East 478 550 35,000  Level Chicago Center
10:14AM 43.2236 -85.4203 88° East 485 558 35,000  Level Chicago Center
10:15AM 43.2253 -85.2336 89° East 476 548 35,000  Level Cleveland Center
10:16AM 43.2306 -85.0486 88° East 476 548 35,000  Level Cleveland Center
10:17AM 43.2333 -84.8664 89° East 476 548 35,000  Level Cleveland Center
10:18AM 43.2378 -84.6842 88° East 476 548 35,000  Level Cleveland Center
10:19AM 43.2400 -84.5019 89° East 476 548 35,000  Level Cleveland Center
10:20AM 43.2439 -84.3142 88° East 476 548 35,000  Level Cleveland Center
10:21AM 43.2456 -84.1347 89° East 476 548 35,000  Level Cleveland Center
10:22AM 43.2486 -83.9581 89° East 476 548 35,000  Level Cleveland Center
10:23AM 43.2497 -83.7756 89° East 476 548 35,000  Level Cleveland Center
10:24AM 43.2506 -83.5875 90° East 476 548 35,000  Level Cleveland Center
10:25AM 43.2531 -83.4081 89° East 476 548 35,000  Level Cleveland Center
10:26AM 43.2531 -83.2256 90° East 476 548 35,000  Level Cleveland Center
10:27AM 43.2553 -83.0375 89° East 476 548 35,000  Level Cleveland Center
10:28AM 43.2547 -82.8550 90° East 481 554 35,000  Level Cleveland Center
10:29AM 43.2519 -82.6667 91° East 481 554 35,000  Level Cleveland Center
10:30AM 43.2333 -82.5333 101° East 490 564 35,000  Level Toronto Center
10:31AM 43.2167 -82.3500 97° East 490 564 35,000  Level Toronto Center
10:32AM 43.2000 -82.1667 97° East 490 564 35,000  Level Toronto Center
10:33AM 43.1833 -81.9833 97° East 490 564 35,000  Level Toronto Center
10:34AM 43.1833 -81.8000 90° East 490 564 35,000  Level Toronto Center
10:35AM 43.1667 -81.6167 97° East 480 552 35,000  Level Toronto Center
10:36AM 43.1500 -81.4333 97° East 480 552 35,000  Level Toronto Center
10:37AM 43.1500 -81.2500 90° East 490 564 35,000  Level Toronto Center
10:38AM 43.1167 -81.0667 104° East 490 564 35,000  Level Toronto Center
10:39AM 43.1167 -80.8833 90° East 500 575 35,000  Level Toronto Center
10:40AM 43.1000 -80.6833 96° East 500 575 35,000  Level Toronto Center
10:41AM 43.0833 -80.5000 97° East 510 587 35,000  Level Toronto Center
10:42AM 43.0667 -80.3000 96° East 510 587 35,000  Level Toronto Center
10:43AM 43.0500 -80.1167 97° East 510 587 35,000  Level Toronto Center
10:44AM 43.0333 -79.9000 96° East 510 587 35,000  Level Toronto Center
10:45AM 43.0167 -79.7167 97° East 510 587 35,000  Level Toronto Center
10:46AM 43.0000 -79.5167 96° East 510 587 35,000  Level Toronto Center
10:47AM 42.9833 -79.3333 97° East 510 587 35,000  Level Toronto Center
10:48AM 42.9667 -79.1333 96° East 510 587 35,000  Level Toronto Center
10:49AM 42.9500 -78.9500 97° East 500 575 35,000  Level Toronto Center
10:50AM 42.9333 -78.7667 97° East 500 575 35,000  Level Toronto Center
10:51AM 42.9244 -78.5844 94° East 500 575 35,000  Level Cleveland Center
10:52AM 42.9042 -78.3950 98° East 500 575 35,000  Level Cleveland Center
10:53AM 42.8839 -78.2031 98° East 500 575 35,000  Level Cleveland Center
10:54AM 42.8928 -78.0328 86° East 500 575 35,000  Level Cleveland Center
10:55AM 42.9175 -77.8389 80° East 501 577 35,000  Level Cleveland Center
10:56AM 42.9336 -77.6481 83° East 506 582 35,000  Level Cleveland Center
10:57AM 42.9036 -77.4597 102° East 492 566 35,000  Level Cleveland Center
10:58AM 42.8672 -77.2744 105° East 502 578 35,000  Level Cleveland Center
11:00AM 42.8053 -76.9406 104° East 504 580 35,000  Level Boston Center
11:01AM 42.7706 -76.7597 105° East 504 580 35,000  Level Boston Center
11:02AM 42.7339 -76.5733 105° East 504 580 35,000 -600 Level Boston Center
11:03AM 42.6986 -76.3900 105° East 504 580 33,900 -1,800 Descending Boston Center
11:04AM 42.6631 -76.2069 105° East 504 580 31,500 -2,460 Descending Boston Center
11:05AM 42.6272 -76.0242 105° East 504 580 29,000 -2,100 Descending Boston Center
11:06AM 42.5892 -75.8442 106° East 499 574 27,300 -1,860 Descending Boston Center
11:07AM 42.5525 -75.6675 106° East 493 567 25,300 -2,100 Descending Boston Center
11:08AM 42.5258 -75.4997 102° East 475 547 23,100 -1,560 Descending Boston Center
11:09AM 42.5836 -75.3644 60° Northeast 415 478 22,200 -600 Descending Boston Center
11:10AM 42.5831 -75.2289 90° East 391 450 22,000 -120 Descending Boston Center
11:11AM 42.4931 -75.1517 148° Southeast 321 369 22,000  Level Boston Center
11:12AM 42.4183 -75.0556 136° Southeast 339 390 22,000  Level Boston Center
11:13AM 42.3650 -74.9186 118° Southeast 377 434 22,000 -240 Level Boston Center
11:14AM 42.3036 -74.7644 118° Southeast 413 475 21,600 -960 Descending Boston Center
11:15AM 42.2461 -74.6167 118° Southeast 432 497 20,100 -1,500 Descending Boston Center
11:16AM 42.1883 -74.4800 120° Southeast 432 497 18,600 -1,140 Descending Boston Center
11:17AM 42.1383 -74.3522 118° Southeast 427 491 17,900 -780 Descending Boston Center
11:18AM 42.0739 -74.2078 121° Southeast 414 476 17,100 -600 Descending Boston Center
11:19AM 42.0114 -74.0803 123° Southeast 414 476 16,800 -900 Descending Boston Center
11:20AM 41.9483 -73.9558 124° Southeast 414 476 15,400 -1,500 Descending Boston Center
11:21AM 41.8789 -73.8453 130° Southeast 397 457 13,800 -1,200 Descending Boston Center
11:22AM 41.7814 -73.8208 169° South 351 404 13,000 -600 Descending Boston Center
11:23AM 41.6811 -73.8269 183° South 351 404 12,700 -600 Descending Boston Center
11:24AM 41.5833 -73.8500 190° South 345 397 11,800 -1,020 Descending New York TRACON
11:25AM 41.5000 -73.8667 189° South 316 364 10,700 -1,260 Descending New York TRACON
11:26AM 41.4167 -73.8667 180° South 290 334 9,300 -1,380 Descending New York TRACON
11:27AM 41.3500 -73.8000 143° Southeast 294 338 8,000 -660 Descending New York TRACON
11:28AM 41.2833 -73.7500 151° Southeast 288 331 8,000  Level New York TRACON
11:29AM 41.2167 -73.6833 143° Southeast 291 335 8,000 -300 Level New York TRACON
11:30AM 41.1500 -73.6333 151° Southeast 287 330 7,500 -1,500 Descending New York TRACON
11:31AM 41.0833 -73.5833 151° Southeast 275 316 5,100 -1,740 Descending New York TRACON
11:32AM 41.0167 -73.5833 180° South 265 305 4,000 -600 Descending New York TRACON
11:33AM 40.9500 -73.6167 201° Southwest 263 303 4,000  Level New York TRACON
11:34AM 40.8833 -73.6333 191° South 264 304 4,000  Level New York TRACON
11:35AM 40.8167 -73.6667 201° Southwest 247 284 4,000  Level New York TRACON
11:36AM 40.7667 -73.7167 217° Southwest 223 257 4,000  Level New York TRACON
11:37AM 40.7833 -73.8000 285° West 218 251 4,000  Level New York TRACON
11:38AM 40.7833 -73.8833 270° West 211 243 4,000  Level New York TRACON
11:39AM 40.7833 -73.9500 270° West 189 217 4,000  Level New York TRACON
11:40AM 40.7833 -74.0167 270° West 185 213 4,000  Level New York TRACON
11:41AM 40.7333 -74.0500 207° Southwest 193 222 4,000  Level New York TRACON
11:42AM 40.6833 -74.0833 207° Southwest 199 229 4,000  Level New York TRACON